"Pseudo-MPEC" for P10Oju0

Created 2019 Jun 15 19:09:10 UT using Find_Orb

Click here for an explanation of pseudo-MPECs

 
 Astrometry: 
     P10Oju0  C2019 05 29eUG5gN)UjcXrLg#LAdkh_nwa7B#3(QS^xh%'qZqhx):Jp=Qk\BYAF51
     P10Oju0  C2019 05 29jV\(R9;[jnsC7Astrometryx$b2redacted;uP0Xj5NbfsD.R?y/F51
     P10Oju0  C2019 05 29U[;nPv8yo56G9RZh)DFMYNclickiyG3b,ac;v$/U%$7oLQH,?+P@F51
     P10Oju0  C2019 05 29XdnHcp5KJvfgkE!C#H%:rQE@7?KA_]+-_IWOt'K;HpWnqnN#MCu$F51
     P10Oju0  C2019 06 01Booa@7WvbqE?Ft!KiIAF=9!fAX9SrahereHgHBX#SUeJT*pN_A=/F51
     P10Oju0  C2019 06 02=0slQQ,J^$1`E3\$65Y!:3`dE`Y.#Q53$'UghmkyS73for5;#%NYF51
     P10Oju0  C2019 06 02?a?)#C7MFBbYGixWfJ@#m-mb0r6ikRbNU'rFTipRj9PFJppM6ttCF51
     P10Oju0  C2019 06 02g].9sw^K`2[g^[uW$k/n^9;//16_0wexplanationG+sA]WFCD[dF51
     P10Oju0  C2019 06 02(=9_A^n6Ba+QKpA%0R6yb0tEAuBeV`nsy-;7V+Y=6eh`,mp8J-lfF51
     P10Oju0  C2019 06 05.41465 21 00 08.46 +14 07 51.4    ~65Aq 21.2 GVNEOCPV06
     P10Oju0  C2019 06 05.42192 21 00 08.44 +14 07 54.0    ~65Aq 21.1 GVNEOCPV06
     P10Oju0  C2019 06 05.42920 21 00 08.42 +14 07 56.4    ~65Aq 21.2 GVNEOCPV06
     P10Oju0  C2019 06 05.43648 21 00 08.40 +14 07 58.7    ~65Aq 20.9 GVNEOCPV06
     P10Oju0  C2019 06 13.41218 20 59 22.93 +14 50 03.7    ~6DBM 21.5 GVNEOCPI52
     P10Oju0  C2019 06 13.43008 20 59 22.74 +14 50 08.8    ~6DBM 21.8 GVNEOCPI52
     P10Oju0  C2019 06 13.45276 20 59 22.71 +14 50 15.8    ~6DBM 20.4 GVNEOCPI52

Station data:
(F51) Pan-STARRS 1, Haleakala  (N20.707235 W156.255910)  US/Hawaii.
   Observers N. Primak, A. Schultz, S. Watters, J. Thiel, T. Goggia. Measurer
   PS1 Science Consortium. 1.8-m Ritchey-Chrétien + CCD.
(I52) Steward Observatory, Mt. Lemmon Station  (N32.442547 W110.788920)
   US/Arizona.  Observers T. A. Pruyne, B. M. Africano, E. J. Christensen, G.
   A. Farneth, D. C. Fuls, A. R. Gibbs, A. D. Grauer, H. Groeller, J. A.
   Johnson, R. A. Kowalski, S. M. Larson, G. J. Leonard, R. L. Seaman, F. C.
   Shelly. 1.0-m reflector + CCD.
(V06) Catalina Sky Survey-Kuiper  (N32.416847 W110.732550)  US/Arizona.
   Observers T. A. Pruyne, B. M. Africano, E. J. Christensen, G. A. Farneth,
   D. C. Fuls, A. R. Gibbs, A. D. Grauer, H. Groeller, J. A. Johnson, R. A.
   Kowalski, S. M. Larson, G. J. Leonard, R. L. Seaman, F. C. Shelly. 1.55-m
   reflector + CCD.

Orbital elements:  P10Oju0
   Perihelion 2019 Jan 31.816074 +/- 114 TT = 19:35:08 (JD 2458515.316074)
Epoch 2019 Jun 13.0 TT = JDT 2458647.5   Ju: 0.2776           AutoNEOCP
M  10.83511427 +/- 9                (J2000 ecliptic)
n   0.08196998 +/- 0.000706         Peri.   75.00885 +/- 10
a   5.24847117 +/- 0.0301           Node   223.75610 +/- 0.16
e   0.0604830 +/- 0.00591           Incl.   27.05132 +/- 0.007
P  12.02                   H 14.2   G  0.15   U  8.0  
q 4.93102771 +/- 0.00411    Q 5.56591464 +/- 0.0631
From 16 observations 2019 May 29-June 13; mean residual 0".37
Residuals in arcseconds: 
190529 F51  .12-  .01-    190602 F51  .02-  .00     190605 V06  .07+  .08-    
190529 F51  .07+  .03+    190602 F51  .03-  .04+    190613 I52  .66-  .05+    
190529 F51  .09-  .02+    190602 F51  .06+  .04+    190613 I52  .99-  .17-    
190529 F51  .02+  .05+    190605 V06  .14-  .04-    190613 I52  1.7+  .11+    
190601 F51  .23+  .28-    190605 V06  .07-  .11+    
190602 F51  .00   .09+    190605 V06  .00   .06+    

Ephemerides (geocentric):
Date (UTC) HH   RA              Dec         delta   r     elong  mag " sig PA
---- -- -- --  -------------   -----------  ------ ------ -----  --- ---- ---
2019 06 15 19  20 59 00.391   +15 01 33.58  4.3929 4.9377 117.0 21.6 .386  85
2019 06 15 20  20 58 59.960   +15 01 45.37  4.3925 4.9377 117.0 21.6 .391  85
2019 06 15 21  20 58 59.528   +15 01 57.15  4.3920 4.9377 117.1 21.6 .396  85
2019 06 15 22  20 58 59.095   +15 02 08.92  4.3916 4.9377 117.1 21.6 .402  85
2019 06 15 23  20 58 58.660   +15 02 20.67  4.3911 4.9377 117.1 21.6 .407  85
2019 06 16 00  20 58 58.224   +15 02 32.42  4.3907 4.9377 117.2 21.6 .413  85
2019 06 16 01  20 58 57.787   +15 02 44.16  4.3902 4.9377 117.2 21.6 .418  85
2019 06 16 02  20 58 57.348   +15 02 55.89  4.3897 4.9377 117.2 21.6 .424  85
2019 06 16 03  20 58 56.908   +15 03 07.61  4.3893 4.9377 117.3 21.6 .429  85
2019 06 16 04  20 58 56.467   +15 03 19.32  4.3888 4.9377 117.3 21.6 .435  85
2019 06 16 05  20 58 56.025   +15 03 31.02  4.3884 4.9377 117.3 21.6 .440  85
2019 06 16 06  20 58 55.582   +15 03 42.71  4.3879 4.9377 117.3 21.6 .446  85
2019 06 16 07  20 58 55.137   +15 03 54.39  4.3875 4.9378 117.4 21.6 .452  85
2019 06 16 08  20 58 54.691   +15 04 06.06  4.3870 4.9378 117.4 21.6 .457  85
2019 06 16 09  20 58 54.244   +15 04 17.71  4.3866 4.9378 117.4 21.6 .463  85
2019 06 16 10  20 58 53.796   +15 04 29.36  4.3861 4.9378 117.5 21.6 .469  85
2019 06 16 11  20 58 53.346   +15 04 41.00  4.3857 4.9378 117.5 21.6 .475  85
2019 06 16 12  20 58 52.895   +15 04 52.63  4.3852 4.9378 117.5 21.6 .480  85
2019 06 16 13  20 58 52.443   +15 05 04.25  4.3848 4.9378 117.6 21.6 .486  85
2019 06 16 14  20 58 51.990   +15 05 15.86  4.3843 4.9378 117.6 21.6 .492  85
2019 06 16 15  20 58 51.536   +15 05 27.46  4.3839 4.9378 117.6 21.6 .498  85
2019 06 16 16  20 58 51.080   +15 05 39.05  4.3834 4.9378 117.7 21.6 .504  85
2019 06 16 17  20 58 50.623   +15 05 50.63  4.3830 4.9378 117.7 21.6 .510  85
2019 06 16 18  20 58 50.165   +15 06 02.20  4.3825 4.9378 117.7 21.6 .516  85
2019 06 16 19  20 58 49.705   +15 06 13.76  4.3820 4.9378 117.8 21.6 .521  85
2019 06 16 20  20 58 49.244   +15 06 25.30  4.3816 4.9378 117.8 21.6 .527  85
2019 06 16 21  20 58 48.783   +15 06 36.84  4.3811 4.9378 117.8 21.6 .533  85
2019 06 16 22  20 58 48.319   +15 06 48.37  4.3807 4.9378 117.9 21.6 .540  85
2019 06 16 23  20 58 47.855   +15 06 59.89  4.3802 4.9378 117.9 21.6 .546  85
2019 06 17 00  20 58 47.390   +15 07 11.40  4.3798 4.9378 117.9 21.6 .552  85
2019 06 17 01  20 58 46.923   +15 07 22.90  4.3793 4.9378 118.0 21.6 .558  85
2019 06 17 02  20 58 46.455   +15 07 34.39  4.3789 4.9378 118.0 21.6 .564  85
2019 06 17 03  20 58 45.985   +15 07 45.86  4.3785 4.9378 118.0 21.6 .570  85
2019 06 17 04  20 58 45.515   +15 07 57.33  4.3780 4.9378 118.1 21.6 .576  85
2019 06 17 05  20 58 45.043   +15 08 08.79  4.3776 4.9378 118.1 21.6 .583  85
2019 06 17 06  20 58 44.570   +15 08 20.24  4.3771 4.9378 118.1 21.6 .589  85
2019 06 17 07  20 58 44.096   +15 08 31.68  4.3767 4.9378 118.1 21.6 .595  85
2019 06 17 08  20 58 43.621   +15 08 43.10  4.3762 4.9379 118.2 21.6 .601  85
2019 06 17 09  20 58 43.144   +15 08 54.52  4.3758 4.9379 118.2 21.6 .608  85
2019 06 17 10  20 58 42.666   +15 09 05.93  4.3753 4.9379 118.2 21.6 .614  85
2019 06 17 11  20 58 42.187   +15 09 17.32  4.3749 4.9379 118.3 21.6 .621  85
2019 06 17 12  20 58 41.707   +15 09 28.71  4.3744 4.9379 118.3 21.6 .627  85
2019 06 17 13  20 58 41.225   +15 09 40.09  4.3740 4.9379 118.3 21.6 .633  85
2019 06 17 14  20 58 40.742   +15 09 51.45  4.3735 4.9379 118.4 21.6 .640  85
2019 06 17 15  20 58 40.258   +15 10 02.81  4.3731 4.9379 118.4 21.6 .646  85
2019 06 17 16  20 58 39.773   +15 10 14.15  4.3726 4.9379 118.4 21.6 .653  85
2019 06 17 17  20 58 39.287   +15 10 25.49  4.3722 4.9379 118.5 21.6 .659  85
2019 06 17 18  20 58 38.799   +15 10 36.81  4.3717 4.9379 118.5 21.6 .666  85